Location: LDNL
(36.4545°S, 141.6685°E)
Time: 13:50:49
(UTC+11:00)

Courier 1B Rocket - Pass Details

Date: 04 February 2023
Orbit: 920 x 1202 km, 28.2° (Epoch: 25 March)

Event Time Altitude Azimuth Distance (km) Brightness Sun altitude
Rises 03:21:41 0° 342° (NNW) 3,943 - -32.6°
Reaches altitude 10° 03:26:37 10° 10° (N) 3,050 - -32.1°
Maximum altitude 03:29:19 12° 31° (NNE) 2,918 - -31.8°
Exits shadow 03:31:49 10° 51° (NE) 3,076 7.5 -31.6°
Drops below altitude 10° 03:32:04 10° 53° (NE) 3,106 7.5 -31.6°
Sets 03:37:11 0° 80° (E) 4,101 8.5 -31.1°
